Flag for U.S.A. Weather past 2 weeks in Decatur, Illinois, U.S.A.

Now
68 °F

Passing clouds.


Feels Like: 68 °F
Forecast: 66 / 78 °F
Wind: 13 mph from Southwest

Location: Decatur Airport

Current Time: Oct 2, 2014 at 9:33:10 AM

Latest Report: Oct 2, 2014 at 8:54 AM


Visibility: 10 mi

Pressure: 29.86 "Hg

Humidity: 93%

Dew point: 66 °F

Location of DecaturLocation

Historic Weather in Decatur — Graph

°F

Decatur temperature yesterday

Maximum temperature yesterday: 83 °F (at 3:54 PM)
Minimum temperature yesterday: 50 °F (at 2:54 AM)
Average temperature yesterday: 67 °F

Past Weeks' High & Low Weather Summary

 TemperatureHumidityPressure
High85 °F (Sep 28, 3:54 PM)100% (Oct 2, 6:54 AM)30.36 "Hg (Oct 2, 6:54 AM)
Low44 °F (Sep 23, 4:54 AM)31% (Sep 24, 2:54 PM)29.83 "Hg (Sep 21, 1:54 AM)
Average64 °F70%30.10 "Hg
* Reported Sep 17 7:54 AM — Oct 2 7:54 AM, Decatur, Weather by CustomWeather, © 2014

Note: Actual official high and low records may vary slightly from our data, if they occured in-between our weather recording intervals... More about our weather records

Advertising

Decatur weather history for previous 24 hours

 ConditionsComfort  
Time TempWeatherWind HumidityBarometerVisibility
7:54 AM
Oct 2
67 °FSunny.13 mph93%29.85 "Hg10 mi
6:54 AM66 °FPassing clouds.9 mph100%29.85 "Hg10 mi
5:54 AM66 °FLight rain. Fog.6 mph96%29.89 "Hg6 mi
4:54 AM67 °FRain. Fog.5 mph97%29.89 "Hg4 mi
3:54 AM67 °FLight rain. Passing clouds.15 mph97%29.85 "Hg10 mi
2:54 AM66 °FRain. Fog.10 mph93%29.86 "Hg6 mi
2:02 AM67 °FLight rain. Mostly cloudy.15 mph93%29.89 "Hg7 mi
1:54 AM67 °FLight rain. Passing clouds.12 mph93%29.88 "Hg7 mi
12:54 AM67 °FLight rain. Fog.7 mph90%29.89 "Hg6 mi
11:54 PM
Oct 1
67 °FRain. Overcast.12 mph90%29.90 "Hg7 mi
11:04 PM68 °FRain. Fog.13 mph90%29.93 "Hg3 mi
10:54 PM70 °FRain. Passing clouds.16 mph79%29.91 "Hg6 mi
9:54 PM71 °FPassing clouds.6 mph68%29.89 "Hg10 mi
8:54 PM73 °FPassing clouds.6 mph64%29.89 "Hg10 mi
7:54 PM74 °FClear.7 mph62%29.87 "Hg10 mi
6:54 PM75 °FSunny.8 mph60%29.85 "Hg10 mi
5:54 PM78 °FSunny.9 mph54%29.85 "Hg10 mi
4:54 PM81 °FSunny.8 mph47%29.85 "Hg10 mi
3:54 PM83 °FPartly sunny.13 mph43%29.85 "Hg10 mi
2:54 PM82 °FPartly sunny.13 mph44%29.87 "Hg10 mi
1:54 PM82 °FPassing clouds.13 mph44%29.88 "Hg10 mi
12:54 PM79 °FScattered clouds.9 mph48%29.92 "Hg10 mi
11:54 AM77 °FSunny.9 mph58%29.94 "Hg10 mi
10:54 AM72 °FSunny.12 mph66%29.95 "Hg10 mi
9:54 AM65 °FSunny.7 mph73%29.97 "Hg10 mi
Weather by CustomWeather, © 2014

See weather overviewHow to use our weather pages